Station PHBP1 - 8545240 - Philadelphia, PA Image indicating link to RSS feed of recent meteorological observations for station PHBP1


Conditions at PHBP1 as of
(5:30 pm EDT)
2130 GMT on 04/19/2024:
     

Click on the graph icon in the table below to see a time series plot of the last five days of that observation.

5-day plot - Atmospheric Pressure Atmospheric Pressure (PRES):30.02 in
5-day plot - Air Temperature Air Temperature (ATMP): 57.7 °F
5-day plot - Water Temperature Water Temperature (WTMP): 55.9 °F
NOS Water Level Observation Network Water Level
Previous observations
TIME
(EDT)
5-day plot - Wind Direction
WDIR
 
5-day plot - Wind Speed
WSPD
kts
5-day plot - Wind Gust
GST
kts
5-day plot - Wave Height
WVHT
ft
5-day plot - Dominant Wave Period
DPD
sec
5-day plot - Average Wave Period
APD
sec
5-day plot - Mean Wave Direction
MWD
 
5-day plot - Atmospheric Pressure
PRES
in
5-day plot - Pressure Tendency
PTDY
in
5-day plot - Air Temperature
ATMP
°F
5-day plot - Water Temperature
WTMP
°F
5-day plot - Dew Point
DEWP
°F
5-day plot - Salinity
SAL
psu
5-day plot - Visibility
VIS
nmi
5-day plot - Tide (above MLLW)
TIDE
ft
2024-04-19 05:24 pm-------30.02- 57.7 55.9----
2024-04-19 05:18 pm-------30.02- 57.7 55.9----
2024-04-19 05:12 pm-------30.03- 57.7 55.9----
2024-04-19 05:06 pm-------30.03- 57.9 55.9----
2024-04-19 05:00 pm-------30.03-0.06 57.9 55.9----
2024-04-19 04:54 pm-------30.03- 57.7 55.9----
2024-04-19 04:48 pm-------30.03- 57.7 55.9----
2024-04-19 04:42 pm-------30.03- 57.7 55.9----
2024-04-19 04:36 pm-------30.04- 57.7 55.9----
2024-04-19 04:30 pm-------30.04- 57.7 55.9----
2024-04-19 04:24 pm-------30.04- 57.7 55.9----
2024-04-19 04:18 pm-------30.04- 57.7 55.9----
2024-04-19 04:12 pm-------30.04- 57.7 55.9----
2024-04-19 04:06 pm-------30.04- 57.6 55.9----
2024-04-19 04:00 pm-------30.05-0.04 57.4 55.9----
2024-04-19 03:54 pm-------30.05- 57.6 55.9----
2024-04-19 03:48 pm-------30.05- 57.4 55.9----
2024-04-19 03:42 pm-------30.05- 57.2 55.9----
2024-04-19 03:36 pm-------30.05- 57.2 55.9----
2024-04-19 03:30 pm-------30.05- 57.0 55.8----
2024-04-19 03:24 pm-------30.07- 56.8 55.8----
2024-04-19 03:18 pm-------30.08- 56.5 55.8----
2024-04-19 03:12 pm-------30.08- 56.3 55.8----
2024-04-19 03:06 pm-------30.09- 56.1 55.8----
2024-04-19 03:00 pm-------30.09-0.02 56.5 55.8----
2024-04-19 02:54 pm-------30.10- 56.5 55.8----
2024-04-19 02:48 pm-------30.10- 56.7 55.8----
2024-04-19 02:42 pm-------30.10- 56.5 55.8----
2024-04-19 02:36 pm-------30.09- 56.3 55.8----
2024-04-19 02:30 pm-------30.09- 56.3 55.8----
2024-04-19 02:24 pm-------30.09- 56.3 55.8----
2024-04-19 02:18 pm-------30.09- 56.1 55.8----
2024-04-19 02:12 pm-------30.09- 56.1 55.8----
2024-04-19 02:06 pm-------30.09- 56.5 55.8----
2024-04-19 02:00 pm-------30.09-0.04 56.7 55.8----
2024-04-19 01:54 pm-------30.09- 56.5 55.8----
2024-04-19 01:48 pm-------30.08- 56.3 55.8----
2024-04-19 01:42 pm-------30.08- 55.9 55.8----
2024-04-19 01:36 pm-------30.08- 55.4 55.6----
2024-04-19 01:30 pm-------30.08- 55.6 55.6----
2024-04-19 01:24 pm-------30.08- 55.8 55.6----
2024-04-19 01:18 pm-------30.08- 55.6 55.6----
2024-04-19 01:12 pm-------30.08- 55.2 55.6----
2024-04-19 01:06 pm-------30.08- 55.2 55.6----
2024-04-19 01:00 pm-------30.09-0.06 55.0 55.6----
2024-04-19 12:54 pm-------30.09- 54.9 55.6----
2024-04-19 12:48 pm-------30.09- 54.9 55.6----
2024-04-19 12:42 pm-------30.10- 54.9 55.6----
2024-04-19 12:36 pm-------30.10- 54.5 55.6----
2024-04-19 12:30 pm-------30.10- 54.1 55.6----
2024-04-19 12:24 pm-------30.10- 54.0 55.6----
2024-04-19 12:18 pm-------30.10- 53.6 55.6----
2024-04-19 12:12 pm-------30.10- 53.6 55.6----
2024-04-19 12:06 pm-------30.11- 53.6 55.6----
2024-04-19 12:00 pm-------30.11-0.02 53.4 55.6----
2024-04-19 11:54 am-------30.11- 53.8 55.6----
2024-04-19 11:48 am-------30.11- 53.8 55.6----
2024-04-19 11:42 am-------30.11- 53.4 55.6----
2024-04-19 11:36 am-------30.11- 52.7 55.6----
2024-04-19 11:30 am-------30.12- 52.3 55.6----
2024-04-19 11:24 am-------30.12- 52.3 55.6----
2024-04-19 11:18 am-------30.12- 52.0 55.6----
2024-04-19 11:12 am-------30.12- 51.6 55.6----
2024-04-19 11:06 am-------30.13- 51.4 55.6----
2024-04-19 11:00 am-------30.14-0.01 51.6 55.6----
2024-04-19 10:54 am-------30.14- 51.3 55.6----
2024-04-19 10:48 am-------30.13- 51.1 55.6----
2024-04-19 10:42 am-------30.14- 50.7 55.6----
2024-04-19 10:36 am-------30.14- 50.7 55.6----
2024-04-19 10:30 am-------30.14- 50.9 55.6----
2024-04-19 10:24 am-------30.14- 50.7 55.6----
2024-04-19 10:18 am-------30.15- 50.9 55.6----
2024-04-19 10:12 am-------30.15- 50.5 55.6----
2024-04-19 10:06 am-------30.15- 50.4 55.6----
2024-04-19 10:00 am-------30.15+0.00 50.4 55.6----
2024-04-19 09:54 am-------30.14- 50.0 55.6----
2024-04-19 09:48 am-------30.14- 50.0 55.6----
2024-04-19 09:42 am-------30.14- 50.0 55.6----
2024-04-19 09:36 am-------30.14- 49.8 55.6----
2024-04-19 09:30 am-------30.14- 49.5 55.6----
2024-04-19 09:24 am-------30.14- 49.3 55.6----
2024-04-19 09:18 am-------30.14- 49.3 55.6----
2024-04-19 09:12 am-------30.14- 49.1 55.6----
2024-04-19 09:06 am-------30.14- 48.9 55.6----
2024-04-19 09:00 am-------30.14-0.01 49.1 55.6----
2024-04-19 08:54 am-------30.14- 49.3 55.6----
2024-04-19 08:48 am-------30.14- 48.9 55.6----
2024-04-19 08:42 am-------30.14- 48.6 55.6----
2024-04-19 08:36 am-------30.14- 48.6 55.6----
2024-04-19 08:30 am-------30.14- 48.6 55.6----
2024-04-19 08:24 am-------30.14- 48.4 55.6----
2024-04-19 08:18 am-------30.13- 48.4 55.6----
2024-04-19 08:12 am-------30.14- 48.2 55.6----
2024-04-19 08:06 am-------30.14- 48.0 55.8----
2024-04-19 08:00 am-------30.14+0.01 48.0 55.8----
2024-04-19 07:54 am-------30.14- 48.0 55.8----
2024-04-19 07:48 am-------30.14- 47.7 55.8----
2024-04-19 07:42 am-------30.14- 47.7 55.8----
2024-04-19 07:36 am-------30.15- 47.7 55.8----
2024-04-19 07:30 am-------30.15- 47.7 55.8----
2024-04-19 07:24 am-------30.14- 47.7 55.8----
2024-04-19 07:18 am-------30.14- 47.7 55.8----
2024-04-19 07:12 am-------30.14- 47.7 55.8----
2024-04-19 07:06 am-------30.14- 47.5 55.8----
2024-04-19 07:00 am-------30.15+0.03 47.7 55.8----
2024-04-19 06:54 am-------30.15- 47.5 55.8----
2024-04-19 06:48 am-------30.15- 47.7 55.8----
2024-04-19 06:42 am-------30.15- 47.5 55.8----
2024-04-19 06:36 am-------30.15- 47.5 55.8----
2024-04-19 06:30 am-------30.15- 47.5 55.8----
2024-04-19 06:24 am-------30.15- 47.7 55.8----
2024-04-19 06:18 am-------30.15- 47.7 55.8----
2024-04-19 06:12 am-------30.15- 47.8 55.8----
2024-04-19 06:06 am-------30.15- 47.5 55.8----
2024-04-19 06:00 am-------30.15+0.02 47.5 55.8----
2024-04-19 05:54 am-------30.15- 47.5 55.8----
2024-04-19 05:48 am-------30.15- 47.5 55.8----
2024-04-19 05:42 am-------30.15- 47.3 55.8----
2024-04-19 05:36 am-------30.15- 47.5 55.8----
2024-04-19 05:30 am-------30.15- 47.3 55.8----
2024-04-19 05:24 am-------30.15- 47.3 55.8----
2024-04-19 05:18 am-------30.14- 47.3 55.8----
2024-04-19 05:12 am-------30.14- 47.3 55.8----
2024-04-19 05:06 am-------30.14- 47.1 55.8----
2024-04-19 05:00 am-------30.14+0.00 46.9 55.8----
2024-04-19 04:54 am-------30.13- 47.1 55.8----
2024-04-19 04:48 am-------30.13- 47.1 55.8----
2024-04-19 04:42 am-------30.13- 47.3 55.8----
2024-04-19 04:36 am-------30.13- 47.1 55.8----
2024-04-19 04:30 am-------30.13- 47.1 55.8----
2024-04-19 04:24 am-------30.12- 47.1 55.8----
2024-04-19 04:18 am-------30.12- 47.1 55.8----
2024-04-19 04:12 am-------30.12- 47.1 55.8----
2024-04-19 04:06 am-------30.13- 47.1 55.8----
2024-04-19 04:00 am-------30.12-0.03 47.3 55.8----
2024-04-19 03:54 am-------30.12- 47.3 55.8----
2024-04-19 03:48 am-------30.12- 47.3 55.8----
2024-04-19 03:42 am-------30.12- 47.3 55.8----
2024-04-19 03:36 am-------30.11- 47.5 55.8----
2024-04-19 03:30 am-------30.11- 47.5 55.8----
2024-04-19 03:24 am-------30.11- 47.3 55.8----
2024-04-19 03:18 am-------30.12- 47.3 55.8----
2024-04-19 03:12 am-------30.13- 47.3 55.8----
2024-04-19 03:06 am-------30.13- 47.3 55.8----
2024-04-19 03:00 am-------30.13-0.02 47.3 55.8----
2024-04-19 02:54 am-------30.13- 47.3 55.8----
2024-04-19 02:48 am-------30.14- 47.1 55.8----
2024-04-19 02:42 am-------30.14- 46.9 55.8----
2024-04-19 02:36 am-------30.14- 46.9 55.8----
2024-04-19 02:30 am-------30.14- 46.9 55.8----
2024-04-19 02:24 am-------30.13- 46.9 55.8----
2024-04-19 02:18 am-------30.14- 46.9 55.8----
2024-04-19 02:12 am-------30.14- 46.9 55.8----
2024-04-19 02:06 am-------30.14- 46.9 55.8----
2024-04-19 02:00 am-------30.14-0.01 46.9 55.8----
2024-04-19 01:54 am-------30.14- 47.1 55.8----
2024-04-19 01:48 am-------30.15- 47.1 55.8----
2024-04-19 01:42 am-------30.15- 46.9 55.8----
2024-04-19 01:36 am-------30.15- 46.9 55.8----
2024-04-19 01:30 am-------30.15- 47.1 55.8----
2024-04-19 01:24 am-------30.15- 46.9 55.8----
2024-04-19 01:18 am-------30.15- 47.1 55.8----
2024-04-19 01:12 am-------30.15- 46.9 55.8----
2024-04-19 01:06 am-------30.15- 46.9 55.8----
2024-04-19 01:00 am-------30.15+0.01 46.9 55.8----
2024-04-19 12:54 am-------30.15- 47.1 55.8----
2024-04-19 12:48 am-------30.15- 46.9 55.8----
2024-04-19 12:42 am-------30.15- 46.9 55.8----
2024-04-19 12:36 am-------30.15- 46.9 55.8----
2024-04-19 12:30 am-------30.15- 46.9 55.8----
2024-04-19 12:24 am-------30.15- 47.1 55.8----
2024-04-19 12:18 am-------30.15- 47.1 55.8----
2024-04-19 12:12 am-------30.15- 47.1 55.8----
2024-04-19 12:06 am-------30.15- 47.3 55.8----
2024-04-19 12:00 am-------30.15+0.00 47.3 55.8----
2024-04-18 11:54 pm-------30.14- 47.5 55.8----
2024-04-18 11:48 pm-------30.14- 47.5 55.8----
2024-04-18 11:42 pm-------30.14- 47.7 55.8----
2024-04-18 11:36 pm-------30.15- 47.8 55.8----
2024-04-18 11:30 pm-------30.14- 48.0 55.8----
2024-04-18 11:24 pm-------30.14- 47.8 55.8----
2024-04-18 11:18 pm-------30.14- 48.0 55.8----
2024-04-18 11:12 pm-------30.14- 48.0 55.8----
2024-04-18 11:06 pm-------30.14- 48.0 55.8----
2024-04-18 11:00 pm-------30.15+0.03 48.2 55.8----
2024-04-18 10:54 pm-------30.15- 48.2 55.8----
2024-04-18 10:48 pm-------30.15- 48.2 55.8----
2024-04-18 10:42 pm-------30.15- 48.2 55.8----
2024-04-18 10:36 pm-------30.15- 48.2 55.8----
2024-04-18 10:30 pm-------30.15- 48.2 55.8----
2024-04-18 10:24 pm-------30.15- 48.2 55.8----
2024-04-18 10:18 pm-------30.15- 48.2 55.8----
2024-04-18 10:12 pm-------30.14- 48.2 55.8----
2024-04-18 10:06 pm-------30.14- 48.4 55.8----
2024-04-18 10:00 pm-------30.14+0.04 48.4 55.8----
2024-04-18 09:54 pm-------30.14- 48.6 55.8----
2024-04-18 09:48 pm-------30.14- 48.6 55.8----
2024-04-18 09:42 pm-------30.15- 48.6 55.8----
2024-04-18 09:36 pm-------30.15- 48.7 55.8----
2024-04-18 09:30 pm-------30.15- 48.6 55.8----
2024-04-18 09:24 pm-------30.15- 48.7 55.8----
2024-04-18 09:18 pm-------30.15- 48.7 55.8----
2024-04-18 09:12 pm-------30.15- 48.9 55.9----
2024-04-18 09:06 pm-------30.15- 48.7 55.9----
2024-04-18 09:00 pm-------30.14+0.06 48.7 55.9----
2024-04-18 08:54 pm-------30.14- 48.7 55.9----
2024-04-18 08:48 pm-------30.14- 48.9 55.9----
2024-04-18 08:42 pm-------30.13- 48.9 55.9----
2024-04-18 08:36 pm-------30.13- 49.5 55.9----
2024-04-18 08:30 pm-------30.12- 49.5 55.9----
2024-04-18 08:24 pm-------30.12- 49.6 55.9----
2024-04-18 08:18 pm-------30.12- 49.8 55.9----
2024-04-18 08:12 pm-------30.12- 50.0 55.9----
2024-04-18 08:06 pm-------30.12- 50.2 55.9----
2024-04-18 08:00 pm-------30.11+0.04 50.4 55.9----
2024-04-18 07:54 pm-------30.11- 50.7 55.9----
2024-04-18 07:48 pm-------30.11- 50.9 55.9----
2024-04-18 07:42 pm-------30.11- 51.1 55.9----
2024-04-18 07:36 pm-------30.11- 51.3 55.9----
2024-04-18 07:30 pm-------30.11- 51.3 55.9----
2024-04-18 07:24 pm-------30.11- 51.3 55.9----
2024-04-18 07:00 pm-------30.10+0.04 51.6 55.9----
2024-04-18 06:54 pm-------30.09- 51.6 56.1----
2024-04-18 06:48 pm-------30.10- 51.8 56.1----
2024-04-18 06:42 pm-------30.10- 51.8 56.1----
2024-04-18 06:36 pm-------30.10- 51.8 56.1----
2024-04-18 06:30 pm-------30.10- 51.8 56.1----
2024-04-18 06:24 pm-------30.10- 52.0 56.1----
2024-04-18 06:18 pm-------30.10- 51.8 56.1----
2024-04-18 06:12 pm-------30.09- 52.0 56.1----
2024-04-18 06:06 pm-------30.09- 52.0 56.1----
2024-04-18 06:00 pm-------30.09+0.04- 56.1----
2024-04-18 05:54 pm-------30.08-- 56.1----